Temperature
22 22 21 21 24 26 28 30 30 30 30 29 29 28 27 26 25 23 22 22 21 21 20 20 20 20 20 20 20 20 20 19 19 19 19 19 19 19 19 19 19 19 19 19 19 19 19 19 19
22 21 22 23 26 28 29 30 30 30 30 29 29 28 27 26 24 23 22 22 21 21 20 20 20 20 20 20 20 20 20 19 19 19 19 19 19 19 19 19 19 19 19 19 19 19 19 19 19
22 23 24 26 28 29 29 30 30 30 30 29 29 27 26 25 24 23 22 22 21 20 20 20 20 20 20 20 20 20 19 19 19 19 19 19 19 19 19 19 19 19 19 19 19 19 19 19 19
23 25 26 28 29 31 31 31 31 31 30 29 28 27 25 24 24 23 22 22 21 21 20 21 20 20 20 20 20 19 19 19 19 19 19 19 19 19 19 19 19 19 19 19 19 19 19 19 19
25 27 29 29 31 31 32 32 31 31 30 29 27 26 24 24 23 23 23 22 22 21 20 21 20 20 20 20 19 19 19 19 19 19 19 19 19 19 19 19 19 19 19 19 19 19 19 19 19
27 29 29 30 31 32 32 32 31 31 30 29 27 26 24 24 23 23 23 22 22 21 21 21 20 20 20 20 20 19 19 19 19 19 19 19 19 19 19 19 19 19 19 19 19 19 19 19 19
29 30 30 32 32 32 32 32 31 31 30 29 27 26 24 24 23 23 23 22 22 21 21 21 20 20 20 20 20 19 19 19 19 19 19 19 19 19 19 19 19 19 19 19 19 19 19 19 19
31 31 31 32 32 32 32 32 31 30 30 29 28 26 25 24 23 23 23 22 22 21 21 21 20 20 20 20 20 19 19 19 19 19 19 19 19 19 19 19 19 19 19 19 19 19 19 19 19
32 31 31 32 33 32 33 32 31 30 30 29 28 26 25 24 24 23 23 22 22 22 21 21 20 20 20 20 20 20 19 19 19 19 19 19 19 19 19 19 19 19 19 19 19 19 19 19 19
32 31 32 34 34 34 33 33 32 31 30 29 27 26 25 24 24 24 23 23 22 22 21 21 21 20 20 20 20 19 19 19 19 19 19 19 19 19 19 19 19 19 19 19 19 19 19 19 19
34 33 34 34 34 34 33 33 32 31 30 29 27 26 25 25 24 24 23 23 22 22 21 21 21 21 20 20 20 19 19 19 19 19 19 19 19 19 19 19 19 19 19 19 19 19 19 19 19
35 35 35 34 34 34 33 33 32 31 30 29 27 26 25 25 25 24 23 23 22 22 21 21 20 20 20 20 20 20 19 19 19 19 19 19 19 19 19 19 19 19 19 19 19 19 19 19 19
35 35 35 35 34 33 33 32 31 31 30 29 27 27 26 25 25 24 23 23 22 21 21 21 20 20 20 20 20 20 19 19 19 19 19 19 19 19 19 19 19 19 19 19 19 19 19 19 19
34 34 35 35 34 33 33 32 31 30 29 28 27 27 26 26 25 24 24 23 22 21 21 20 20 20 20 20 20 19 20 19 19 19 19 19 19 19 19 19 19 19 19 19 19 19 19 19 19
34 33 34 35 35 34 33 31 31 30 29 28 28 27 26 26 25 24 24 23 22 21 21 20 20 20 20 20 20 19 19 19 19 19 19 19 19 19 19 19 19 19 19 19 19 19 19 19 19
33 32 32 35 35 34 33 30 31 30 29 29 28 27 26 26 25 24 23 23 22 21 21 20 20 20 20 20 20 20 19 19 19 19 19 19 19 19 19 19 19 19 19 19 19 19 19 19 19
33 32 33 34 35 35 33 31 31 31 30 29 28 27 26 25 25 24 23 22 22 21 21 20 20 20 20 20 20 19 19 19 19 19 19 19 19 19 19 18 19 19 19 19 19 19 19 19 19
32 33 33 34 35 35 34 33 32 31 30 29 29 28 27 26 25 24 23 22 22 21 20 20 20 20 20 20 20 19 19 19 19 19 19 19 19 18 19 18 19 19 19 19 19 19 19 19 19
34 34 34 35 36 35 34 33 33 32 31 30 29 28 27 26 25 24 24 23 22 21 20 20 20 20 20 20 20 19 19 19 19 19 19 19 19 18 19 18 18 19 19 19 19 19 19 18 19
34 34 34 35 36 35 34 33 33 33 32 31 30 29 28 27 26 24 24 23 22 21 21 20 20 20 20 20 20 20 19 19 19 19 19 19 18 19 18 18 18 18 18 18 18 18 18 19 19
34 34 34 34 35 35 33 32 33 33 32 31 30 29 28 27 26 25 24 23 22 21 21 21 20 20 20 20 20 19 19 19 19 19 19 19 19 19 18 18 18 18 18 18 18 18 18 18 18
33 35 35 35 34 33 33 31 32 32 32 31 30 30 29 28 27 25 24 23 23 22 21 21 20 20 20 20 20 19 19 19 19 19 19 19 19 18 18 18 18 18 18 18 18 18 18 18 18
34 35 34 34 33 33 33 32 32 32 31 31 31 30 29 28 27 26 25 24 23 22 21 21 21 20 20 20 20 19 19 19 19 19 19 19 18 18 18 18 18 18 18 18 18 18 18 18 18
35 34 34 33 33 31 32 32 32 32 32 32 32 30 29 28 27 26 25 24 23 22 21 21 20 20 20 20 20 19 19 19 19 19 19 19 18 18 18 18 18 18 18 18 18 18 18 18 18
34 32 31 31 31 31 33 33 32 33 33 33 32 31 29 28 27 26 25 24 23 22 22 21 20 20 20 20 20 19 19 19 19 19 18 18 18 18 19 18 18 18 18 18 18 18 18 18 18
33 32 30 30 30 32 33 32 33 34 34 33 32 31 30 29 27 26 25 24 23 22 22 21 21 20 20 20 19 19 19 19 19 19 18 18 18 18 18 18 18 18 18 18 18 18 18 17 17
32 33 33 32 31 31 32 32 33 34 34 33 32 31 30 29 28 26 25 24 23 22 22 21 21 21 20 20 19 19 19 19 19 18 18 18 18 18 18 18 18 18 18 18 17 17 17 17 17
34 33 33 32 30 30 31 32 32 32 32 32 32 31 30 29 27 26 25 24 23 22 22 21 21 20 20 20 19 19 19 19 18 18 18 18 18 18 18 18 18 17 17 17 17 17 17 17 17
33 33 32 32 31 30 30 30 33 32 32 32 31 30 29 29 28 26 25 24 23 22 22 21 21 20 20 20 19 19 18 18 18 18 18 18 18 18 18 18 17 17 17 17 17 17 17 17 17
34 33 33 31 30 31 30 30 33 33 33 32 31 30 28 28 27 26 25 24 23 22 22 21 20 20 20 19 19 19 18 18 18 18 18 18 18 18 18 17 17 17 17 17 17 17 16 16 16
Wind_Speed
11 11 9 5 4 0 10 12 13 13 13 13 14 13 17 15 11 10 9 12 14 13 12 13 14 14 14 13 13 13 13 14 14 15 15 14 15 14 14 13 13 13 12 12 12 11 11 10 10
10 10 6 3 1 6 12 13 13 12 12 12 14 16 17 15 14 11 10 11 13 14 13 15 16 14 14 13 13 13 13 13 14 14 14 14 14 13 13 12 12 12 11 11 11 11 10 9 8
11 11 5 2 5 10 12 12 12 11 11 12 14 15 13 11 12 10 11 13 14 14 15 16 16 15 14 13 13 13 13 13 13 13 13 13 12 12 12 11 11 11 10 10 9 9 8 7 7
7 7 4 0 9 12 12 11 11 12 13 13 13 12 13 11 10 12 13 14 15 15 16 15 15 14 14 13 13 13 13 13 13 12 12 12 11 11 11 10 10 10 9 9 8 8 7 6 6
9 5 1 4 11 13 12 11 11 11 13 15 15 15 14 13 15 14 13 14 15 15 15 15 15 14 14 13 13 13 12 12 12 12 11 11 11 10 10 10 9 9 8 8 7 6 5 5 5
5 2 1 7 13 13 12 12 11 12 13 14 15 14 11 12 13 12 13 13 14 15 15 15 14 14 13 12 12 12 12 11 11 11 10 10 9 9 9 10 9 8 8 7 6 6 5 5 5
5 3 3 8 12 12 12 12 11 10 11 11 13 12 10 12 11 11 12 12 13 14 14 13 13 13 13 13 12 12 12 11 11 10 9 9 9 9 9 9 9 8 8 7 7 7 7 6 6
3 2 4 8 11 12 11 11 11 11 10 10 10 10 9 12 11 11 12 11 11 12 12 12 13 12 12 12 12 12 12 11 10 10 9 9 9 9 9 9 8 8 8 8 8 8 8 7 8
2 1 4 8 10 10 11 11 11 11 10 11 11 13 14 14 12 12 11 11 10 11 10 9 9 10 11 11 12 12 12 10 10 8 8 8 8 8 9 9 10 9 9 9 9 9 9 9 10
1 2 7 8 9 8 9 9 9 9 10 12 15 16 15 14 12 12 12 12 11 10 10 8 8 8 8 8 10 9 9 10 9 7 7 7 5 6 7 9 11 10 10 10 10 10 10 11 10
1 4 7 6 8 7 8 8 8 10 9 11 15 16 14 13 12 12 12 12 10 9 9 8 7 6 6 5 6 4 5 7 8 7 5 5 4 4 5 6 7 8 10 8 9 9 8 8 7
1 3 5 6 7 7 8 8 9 10 10 11 14 15 13 13 11 11 12 12 10 9 9 8 7 6 5 4 3 4 4 4 4 6 5 3 1 1 1 2 3 5 5 5 4 5 6 5 5
1 2 4 4 5 7 7 8 9 10 11 12 14 14 12 12 11 11 12 12 11 9 8 8 7 6 4 3 1 3 3 3 5 5 4 3 2 2 1 1 2 2 2 3 2 2 3 3 4
3 2 1 3 5 7 7 6 6 9 11 12 12 12 12 11 12 11 11 11 10 9 8 8 7 6 4 2 1 1 2 3 4 5 5 3 2 2 1 1 2 2 1 2 2 2 2 3 2
4 3 4 3 5 6 5 5 5 8 11 12 12 11 11 11 11 10 11 10 10 9 8 7 8 7 4 3 1 1 2 3 2 3 4 3 2 2 1 2 2 1 2 2 2 2 2 2 3
5 6 6 4 3 5 3 5 6 9 10 11 12 12 11 10 10 10 10 10 10 9 8 5 6 7 5 3 1 0 1 2 2 3 3 3 2 2 1 2 2 1 2 2 2 2 1 1 1
9 8 5 4 4 3 3 6 9 10 10 11 12 11 12 11 10 10 11 10 10 9 8 6 4 5 4 3 1 1 0 1 1 2 3 2 2 2 2 2 1 2 2 2 2 1 1 2 2
6 5 5 5 4 3 2 5 9 10 10 10 12 12 12 12 11 11 11 11 10 9 8 7 5 4 4 3 2 1 1 0 0 1 2 2 2 2 2 1 2 3 2 1 1 1 2 2 2
7 6 5 4 3 2 2 4 8 10 9 9 10 12 12 12 12 12 11 12 11 10 8 7 6 5 3 2 2 2 2 1 1 1 3 2 2 2 2 2 2 3 2 2 2 2 2 3 2
8 8 8 6 2 2 2 3 6 9 10 10 11 11 12 12 13 12 11 11 12 11 9 7 6 5 4 3 3 2 2 2 2 1 3 2 2 1 1 1 2 2 2 2 2 1 1 2 1
10 9 8 7 5 5 5 6 6 7 8 8 9 11 12 13 14 13 12 11 12 11 10 8 7 5 4 3 2 1 1 1 1 1 2 1 2 1 2 1 2 1 2 2 2 2 2 2 2
10 10 10 9 8 8 7 6 7 8 9 9 9 10 12 12 14 14 13 12 11 11 10 8 7 5 4 3 2 2 2 2 1 1 1 1 1 1 1 0 1 1 1 0 2 2 2 2 2
10 10 10 10 10 11 10 7 5 10 10 10 10 10 11 11 12 13 13 13 11 11 11 9 8 6 5 4 4 3 2 2 1 1 1 1 2 1 1 0 0 1 1 1 1 1 1 2 2
10 10 11 11 10 12 9 8 5 6 8 10 10 9 9 10 9 10 12 11 10 10 9 9 8 7 6 5 4 3 3 2 1 1 1 2 2 2 1 1 0 1 1 1 1 2 2 2 2
11 10 8 8 8 9 10 8 3 5 6 6 9 11 11 11 10 10 10 11 10 9 9 8 9 7 7 6 5 4 3 3 2 2 2 2 1 1 1 1 1 1 1 1 1 2 2 2 3
11 11 10 9 9 8 7 6 4 7 7 7 9 10 11 11 11 11 10 10 10 9 9 8 9 8 7 6 5 3 3 3 2 2 2 1 1 1 1 1 1 1 1 2 2 2 2 2 3
13 12 14 12 15 12 7 5 5 6 8 9 10 9 9 9 9 10 10 10 9 9 9 8 8 7 7 7 5 4 3 2 2 2 2 2 2 2 0 0 1 1 2 2 2 2 2 2 2
15 12 10 9 9 11 10 7 4 6 7 7 8 9 8 9 9 9 9 9 8 8 8 8 8 7 6 5 6 5 4 4 3 2 2 2 2 2 1 1 1 2 2 2 3 2 2 2 3
14 14 11 9 9 10 10 6 2 7 7 7 8 7 7 8 9 8 8 8 8 7 8 8 7 7 6 5 4 3 4 4 3 3 3 2 2 2 2 2 2 2 2 2 2 3 2 2 3
14 14 14 11 9 10 10 7 2 3 7 7 6 6 6 6 7 7 7 7 7 6 6 7 6 7 7 5 4 4 4 4 4 4 3 3 2 2 2 2 2 3 2 2 2 3 3 3 3
Wind_Direction
193 207 217 243 251 98 61 64 63 61 61 58 60 63 60 54 66 91 97 99 107 110 111 114 116 113 111 110 111 111 113 115 115 116 115 114 115 115 116 118 118 118 118 120 121 121 118 120 122
216 214 226 247 286 63 64 65 65 66 72 74 72 69 67 65 77 99 101 105 109 110 111 111 115 112 111 111 112 112 114 115 115 116 117 117 118 118 120 123 122 122 121 122 122 122 122 125 128
241 235 249 238 54 63 68 69 74 73 74 74 73 65 62 75 85 101 113 114 108 107 109 113 115 114 112 112 112 115 115 115 115 116 120 122 122 123 124 126 127 128 128 127 127 129 132 137 142
241 231 225 115 70 71 76 80 83 79 73 69 74 75 69 79 96 110 118 114 109 109 110 117 117 116 114 113 116 119 120 120 122 122 125 128 129 129 130 130 131 132 132 133 135 138 144 152 158
243 261 220 78 79 79 79 81 83 81 76 79 79 84 82 84 101 112 112 110 110 111 114 121 121 122 120 118 117 121 123 125 126 127 128 129 134 137 138 138 136 135 137 140 143 148 155 166 176
259 279 358 79 84 86 84 79 80 82 86 91 92 89 93 104 111 114 112 110 109 111 114 121 124 125 125 124 123 122 125 128 127 129 133 134 136 141 145 147 147 147 148 153 158 164 175 189 199
255 318 42 79 82 81 81 88 82 80 86 91 101 94 108 114 115 117 115 109 109 113 118 126 130 129 129 128 127 127 129 132 132 136 139 144 147 149 154 156 158 161 164 170 174 179 190 203 213
250 332 27 71 81 81 85 85 88 85 83 93 101 107 120 124 128 124 114 110 110 112 117 128 134 132 135 134 134 137 137 138 141 146 151 157 163 164 166 168 172 177 183 187 190 194 202 211 223
273 346 55 65 78 87 91 88 92 95 87 84 90 107 124 131 131 128 122 117 113 110 113 118 124 130 137 139 143 149 149 150 151 158 167 171 177 175 178 181 176 186 194 200 204 208 212 217 227
129 85 66 68 74 81 88 97 104 103 98 97 97 109 123 132 137 135 132 126 119 115 116 117 119 122 131 133 140 157 157 156 163 166 175 186 187 181 174 168 180 192 200 208 215 221 223 223 223
92 79 83 85 86 84 82 85 87 97 99 114 121 125 132 137 138 134 129 123 120 120 113 118 117 113 119 120 141 150 148 153 163 160 174 182 187 178 167 171 183 198 204 210 210 217 226 227 224
104 74 89 87 86 83 81 82 77 81 99 114 123 130 135 140 137 132 128 125 125 125 118 114 105 101 102 109 124 146 146 150 153 157 178 173 178 186 145 163 182 193 199 200 208 214 228 236 236
351 62 95 103 105 92 82 78 87 95 106 117 125 132 137 138 134 128 126 126 125 122 118 112 107 102 97 89 113 143 147 153 151 151 169 185 179 177 186 224 201 216 204 190 208 223 227 231 229
337 356 352 133 121 120 113 102 100 113 117 124 132 137 140 136 133 129 126 126 126 129 124 119 117 110 106 113 130 115 134 130 141 149 162 188 160 142 190 255 238 233 206 211 205 219 226 225 237
297 289 256 205 144 131 116 105 113 130 132 138 143 143 143 142 139 136 134 134 134 132 127 131 135 128 134 150 158 129 139 146 162 149 152 176 180 167 206 239 235 213 216 216 219 227 218 215 231
258 257 244 206 176 146 153 130 148 153 146 147 149 152 151 148 145 141 138 135 132 132 132 134 137 132 140 134 112 99 147 135 138 143 142 184 197 194 236 243 251 241 230 210 216 237 223 227 246
253 242 231 213 201 170 169 144 160 155 150 154 155 159 157 156 153 147 145 140 134 131 133 138 137 136 143 139 153 217 208 121 156 144 139 180 192 208 244 263 280 269 253 222 240 198 217 243 247
263 254 246 226 191 193 171 144 158 158 156 162 163 162 161 163 161 153 151 146 140 136 135 144 145 134 146 150 174 202 199 145 150 134 143 169 211 233 263 261 248 257 250 249 267 260 241 241 240
274 286 273 249 183 217 199 164 163 166 162 161 165 167 167 167 159 158 160 154 149 144 144 150 150 147 153 155 186 189 190 206 209 189 144 155 229 238 258 288 252 254 243 230 234 241 251 254 244
271 267 266 274 216 232 246 215 177 171 169 164 171 173 169 169 161 162 163 160 157 154 153 156 156 160 173 174 190 194 194 210 203 159 131 167 223 236 257 257 262 260 241 229 244 228 264 274 245
282 279 280 282 271 247 245 245 198 173 151 157 176 170 172 177 170 165 167 168 166 162 164 167 163 167 178 183 189 196 178 206 172 153 148 178 199 215 312 338 300 286 240 204 216 214 237 253 263
273 286 292 289 279 275 255 254 198 178 169 166 175 178 178 177 171 168 170 174 173 167 166 159 160 164 172 183 187 192 188 192 195 179 152 164 163 207 245 313 283 276 286 243 234 202 226 228 249
275 296 300 293 284 275 261 261 212 173 182 176 178 180 178 171 169 167 171 173 174 169 166 163 161 166 170 183 194 201 210 211 206 171 168 178 177 213 238 214 199 236 265 275 288 306 239 239 252
276 283 282 273 268 265 261 257 226 190 187 181 176 167 163 163 155 162 165 160 165 163 162 161 163 170 174 183 188 200 216 234 261 234 206 207 199 191 204 197 214 241 265 274 290 287 259 251 266
254 267 272 267 252 251 248 250 210 171 171 175 166 158 159 159 157 161 165 162 164 164 166 166 166 176 180 185 190 196 213 221 245 261 233 231 248 195 185 192 146 263 278 277 278 261 259 260 260
250 253 259 271 277 273 249 239 184 163 154 148 143 145 152 158 163 164 167 163 165 169 170 169 172 180 183 187 187 193 208 225 231 241 261 262 286 310 81 158 177 225 279 291 289 276 263 269 270
247 251 260 272 276 280 269 247 181 166 147 144 142 143 152 156 154 158 163 163 165 169 171 170 166 172 178 182 180 186 198 220 256 267 243 255 268 280 15 224 216 238 264 276 283 274 275 277 272
244 256 265 264 275 282 280 272 214 158 148 150 154 151 148 149 153 154 156 159 165 170 171 169 165 165 170 184 191 192 190 202 225 247 258 273 284 296 290 271 267 260 258 274 284 280 276 282 273
236 239 249 268 276 275 279 285 169 155 156 155 145 138 142 149 155 152 155 158 164 169 171 171 167 165 174 182 174 192 193 199 213 223 238 253 263 263 266 274 274 268 271 279 270 267 268 270 273
243 247 249 250 257 268 276 277 190 152 145 135 123 118 119 136 137 145 149 152 158 163 166 163 169 178 179 178 177 196 201 198 209 219 219 225 247 257 261 261 272 272 275 276 277 281 286 277 274
Height
1485 1485 1486 1490 1488 1485 1480 1474 1470 1471 1472 1474 1475 1476 1480 1484 1490 1502 1503 1501 1501 1501 1500 1498 1501 1505 1507 1508 1510 1511 1513 1514 1516 1518 1519 1521 1522 1524 1526 1528 1529 1531 1533 1535 1536 1538 1539 1541 1542
1485 1487 1490 1489 1487 1488 1484 1473 1473 1473 1474 1476 1478 1481 1484 1490 1494 1499 1502 1503 1504 1503 1502 1501 1504 1507 1509 1510 1512 1513 1515 1516 1518 1520 1521 1523 1525 1526 1528 1529 1531 1533 1534 1536 1538 1539 1541 1542 1543
1485 1488 1490 1484 1481 1484 1483 1474 1474 1474 1476 1478 1481 1485 1490 1495 1499 1501 1503 1505 1506 1506 1506 1506 1508 1510 1511 1513 1514 1515 1517 1519 1520 1522 1523 1525 1527 1528 1530 1531 1532 1534 1536 1537 1539 1540 1542 1543 1544
1487 1488 1486 1481 1480 1474 1473 1473 1474 1476 1478 1480 1483 1490 1496 1499 1501 1503 1505 1506 1508 1508 1509 1510 1511 1512 1513 1515 1516 1518 1519 1521 1522 1524 1525 1527 1528 1530 1531 1532 1534 1535 1537 1539 1540 1541 1543 1544 1545
1489 1485 1482 1481 1476 1471 1471 1473 1475 1477 1480 1484 1488 1494 1500 1503 1504 1506 1507 1509 1509 1510 1511 1512 1513 1514 1516 1517 1518 1519 1521 1522 1524 1525 1527 1529 1530 1531 1533 1534 1535 1536 1538 1540 1541 1542 1543 1545 1546
1487 1480 1484 1483 1475 1471 1472 1475 1477 1479 1483 1486 1491 1496 1502 1505 1506 1508 1509 1511 1512 1512 1513 1514 1515 1517 1518 1519 1520 1521 1523 1524 1526 1527 1528 1530 1531 1533 1534 1535 1536 1538 1539 1540 1542 1543 1544 1545 1546
1485 1480 1481 1476 1476 1475 1474 1476 1479 1481 1484 1487 1491 1497 1503 1506 1508 1509 1511 1512 1514 1514 1515 1516 1517 1518 1519 1520 1522 1523 1524 1526 1527 1528 1530 1531 1533 1534 1536 1537 1537 1538 1540 1541 1542 1543 1544 1545 1546
1480 1480 1478 1474 1476 1477 1475 1477 1480 1483 1486 1490 1492 1497 1503 1507 1509 1510 1512 1514 1515 1516 1517 1518 1519 1520 1521 1522 1523 1524 1525 1527 1528 1529 1531 1532 1534 1535 1536 1537 1538 1539 1540 1541 1542 1543 1544 1545 1546
1478 1481 1483 1476 1475 1476 1475 1478 1482 1485 1488 1490 1493 1497 1502 1506 1508 1511 1513 1515 1517 1518 1519 1520 1521 1522 1523 1523 1524 1525 1526 1528 1529 1530 1532 1533 1535 1536 1537 1538 1538 1539 1540 1541 1542 1543 1544 1544 1546
1476 1482 1477 1471 1471 1473 1475 1477 1481 1484 1488 1492 1496 1500 1504 1506 1508 1510 1513 1515 1517 1519 1521 1522 1523 1524 1525 1526 1526 1527 1528 1528 1529 1531 1532 1534 1535 1537 1538 1539 1539 1540 1540 1541 1542 1542 1543 1544 1545
1472 1473 1471 1471 1472 1474 1475 1477 1480 1483 1488 1492 1497 1501 1504 1507 1509 1511 1513 1516 1518 1520 1521 1523 1524 1525 1526 1527 1527 1528 1529 1529 1531 1532 1533 1535 1536 1537 1538 1538 1539 1539 1540 1540 1540 1541 1541 1542 1543
1471 1469 1470 1471 1473 1475 1476 1479 1482 1485 1490 1493 1497 1501 1504 1507 1509 1511 1514 1517 1519 1521 1522 1523 1524 1525 1526 1527 1528 1529 1530 1530 1532 1532 1533 1534 1535 1537 1538 1538 1538 1539 1539 1539 1539 1539 1540 1541 1542
1470 1470 1470 1471 1472 1475 1478 1481 1484 1487 1491 1494 1498 1502 1505 1507 1510 1513 1515 1517 1519 1521 1523 1524 1525 1526 1527 1527 1529 1530 1531 1532 1532 1533 1534 1535 1535 1536 1537 1537 1538 1538 1538 1538 1538 1538 1539 1539 1541
1472 1471 1470 1470 1472 1475 1478 1482 1485 1488 1491 1495 1499 1502 1505 1508 1510 1513 1516 1518 1520 1521 1523 1524 1525 1526 1527 1528 1529 1530 1531 1532 1533 1533 1534 1534 1535 1536 1536 1536 1537 1537 1537 1537 1537 1538 1538 1539 1540
1474 1474 1473 1470 1470 1473 1477 1484 1485 1488 1491 1494 1498 1502 1505 1508 1511 1513 1516 1518 1520 1521 1523 1524 1525 1526 1527 1528 1530 1531 1532 1532 1533 1533 1534 1534 1535 1535 1536 1536 1536 1537 1537 1537 1537 1537 1537 1538 1539
1475 1479 1482 1470 1467 1470 1478 1492 1485 1488 1490 1493 1496 1501 1504 1508 1510 1513 1516 1518 1519 1521 1523 1524 1526 1527 1527 1528 1530 1531 1532 1532 1533 1533 1534 1534 1534 1535 1535 1535 1535 1536 1536 1536 1536 1536 1537 1537 1538
1480 1484 1481 1472 1465 1466 1473 1484 1482 1485 1488 1491 1495 1499 1503 1507 1510 1513 1515 1517 1519 1520 1522 1523 1525 1526 1527 1528 1530 1531 1532 1532 1533 1533 1533 1534 1534 1534 1534 1534 1534 1534 1535 1535 1535 1535 1536 1536 1537
1485 1481 1478 1473 1464 1465 1471 1476 1478 1481 1485 1489 1493 1497 1501 1505 1508 1512 1515 1517 1518 1520 1521 1523 1524 1526 1527 1528 1529 1530 1531 1532 1533 1533 1533 1533 1533 1533 1533 1533 1533 1533 1533 1533 1534 1534 1535 1535 1536
1471 1474 1475 1467 1460 1464 1469 1473 1475 1478 1481 1486 1490 1494 1498 1502 1507 1510 1513 1516 1517 1519 1521 1522 1523 1525 1526 1527 1528 1529 1530 1531 1532 1532 1532 1532 1532 1532 1532 1531 1531 1531 1531 1532 1532 1533 1533 1534 1535
1468 1474 1473 1465 1459 1465 1470 1471 1470 1474 1478 1483 1488 1492 1496 1500 1505 1508 1511 1514 1516 1517 1519 1521 1522 1524 1525 1526 1527 1528 1529 1530 1531 1532 1531 1531 1531 1531 1531 1530 1529 1530 1530 1530 1531 1531 1532 1533 1534
1470 1471 1469 1468 1462 1462 1470 1477 1472 1471 1475 1482 1485 1489 1493 1498 1501 1505 1508 1511 1514 1516 1517 1519 1521 1522 1524 1525 1527 1528 1529 1529 1530 1530 1530 1530 1530 1530 1529 1529 1528 1528 1528 1528 1529 1530 1530 1531 1532
1476 1463 1463 1465 1471 1475 1472 1489 1475 1471 1475 1479 1483 1487 1490 1494 1498 1502 1505 1509 1512 1514 1516 1518 1519 1521 1522 1524 1525 1526 1527 1528 1529 1529 1529 1529 1529 1529 1528 1528 1527 1527 1527 1527 1528 1529 1529 1530 1530
1468 1462 1464 1466 1472 1477 1471 1481 1476 1468 1476 1476 1478 1482 1486 1491 1495 1499 1502 1506 1509 1512 1514 1515 1517 1519 1521 1522 1524 1525 1526 1527 1528 1528 1528 1528 1528 1528 1527 1527 1527 1526 1526 1526 1527 1527 1528 1528 1528
1463 1465 1467 1467 1474 1490 1476 1480 1481 1469 1470 1471 1474 1479 1484 1489 1493 1497 1501 1504 1508 1510 1513 1514 1515 1517 1519 1520 1522 1523 1524 1525 1526 1527 1527 1527 1527 1527 1526 1526 1526 1525 1525 1525 1525 1525 1526 1526 1526
1465 1478 1491 1496 1495 1492 1469 1473 1473 1461 1461 1466 1470 1476 1482 1487 1491 1495 1499 1502 1506 1508 1510 1512 1514 1515 1517 1518 1519 1521 1522 1524 1524 1525 1526 1526 1526 1526 1525 1525 1524 1524 1524 1524 1523 1523 1523 1523 1524
1467 1475 1497 1507 1502 1485 1469 1474 1464 1455 1459 1463 1468 1474 1480 1485 1489 1493 1497 1500 1503 1506 1508 1510 1512 1513 1515 1516 1517 1519 1520 1522 1522 1523 1524 1524 1524 1525 1524 1524 1523 1523 1522 1522 1522 1521 1521 1521 1521
1469 1470 1466 1478 1482 1486 1478 1467 1459 1453 1458 1463 1468 1474 1479 1483 1487 1491 1495 1499 1501 1504 1506 1508 1509 1511 1513 1514 1515 1517 1518 1519 1520 1521 1522 1522 1522 1523 1523 1522 1522 1521 1521 1520 1520 1519 1519 1519 1519
1458 1461 1467 1478 1494 1500 1485 1476 1471 1462 1462 1463 1467 1472 1477 1482 1486 1490 1494 1497 1500 1502 1504 1506 1508 1509 1511 1512 1514 1515 1516 1517 1518 1519 1519 1520 1520 1520 1521 1520 1520 1520 1519 1519 1518 1517 1517 1517 1517
1459 1463 1466 1472 1476 1492 1497 1484 1457 1457 1459 1462 1466 1472 1477 1481 1485 1489 1493 1496 1498 1501 1503 1504 1506 1508 1509 1511 1512 1514 1514 1515 1516 1516 1517 1517 1518 1518 1518 1518 1518 1517 1517 1516 1516 1515 1515 1515 1514
1450 1456 1460 1477 1481 1477 1486 1482 1452 1454 1456 1462 1466 1471 1476 1480 1484 1488 1492 1494 1497 1499 1501 1502 1504 1506 1508 1509 1510 1511 1512 1513 1514 1514 1514 1515 1515 1515 1515 1515 1515 1515 1514 1514 1514 1513 1513 1513 1512